Location: Unspecified
(51.5147°N, 7.4673°E)
Time: 07:18:13
(UTC+01:00)

Vanguard 1 Rocket - Visible Passes

Search period start: 18 February 2026 00:00
Search period end: 28 February 2026 00:00
Orbit: 652 x 4215 km, 34.3° (Epoch: 17 February)

Date Brightness Start Highest point End Pass type
(mag) Time Alt. Az. Time Alt. Az. Time Alt. Az.
18 Feb 11.2 17:44:55 10° WSW 17:59:00 39° SSW 18:20:16 10° SE visible
18 Feb 11.7 20:12:45 10° W 20:26:57 24° SW 20:44:11 10° S visible
19 Feb 11.5 18:58:27 10° W 19:12:47 30° SSW 19:32:13 10° SSE visible
19 Feb 12.0 21:33:28 10° WSW 21:39:54 12° SW 21:46:44 10° SSW visible
20 Feb 11.9 20:14:12 10° WSW 20:26:12 19° SW 20:40:37 10° S visible
21 Feb 11.7 18:59:18 10° WSW 19:12:14 25° SSW 19:29:38 10° SSE visible
22 Feb 12.0 20:16:46 10° WSW 20:25:31 14° SW 20:35:40 10° SSW visible
23 Feb 11.8 19:00:34 10° WSW 19:11:45 21° SSW 19:26:25 10° S visible
25 Feb 12.0 19:02:36 10° WSW 19:11:20 16° SW 19:22:11 10° S visible
27 Feb 12.1 19:07:08 10° SW 19:11:00 11° SW 19:15:13 10° SSW visible
